Regional Weather Roundup
Issued by NWS

Home | Current Version | Previous Version | Graphics & Text | Print | Product List | Glossary On
Versions: 1 2 3 4 5 6 7 8 9 10 11 12 13 14 15 16 17 18 19 20 21 22 23 24 25 26 27 28 29 30 31 32 33 34 35 36 37 38 39 40 41 42 43 44 45 46 47 48 49 50
000
ASUS43 KFSD 080210
RWRSD

WEATHER ROUNDUP FOR SOUTH DAKOTA
NATIONAL WEATHER SERVICE SIOUX FALLS SD
800 PM CST SUN FEB 07 2016

NOTE: "FAIR" INDICATES FEW OR NO CLOUDS BELOW 12,000 FEET WITH NO
SIGNIFICANT WEATHER AND/OR OBSTRUCTIONS TO VISIBILITY.


SDZ001>005-009-010-012>017-080300-
NORTHWEST AND NORTH CENTRAL SOUTH DAKOTA

CITY           SKY/WX    TMP DP  RH WIND       PRES   REMARKS
BUFFALO          N/A     30  14  51 NW25      30.21R WCI  16
FAITH            N/A     32  13  45 NW30G39   30.17S WCI  18
MOBRIDGE       MOCLDY    34  17  50 NW30G39   30.07R WCI  20
$$

SDZ012>016-024>037-041>051-057-063-072>074-080300-
SOUTHWEST AND SOUTH CENTRAL SOUTH DAKOTA

CITY           SKY/WX    TMP DP  RH WIND       PRES   REMARKS
RAPID CTY ARPT CLEAR     33   9  36 NW30G46   30.25R WCI  19
PIERRE         CLEAR     33  15  47 NW28G36   30.13R WCI  20
CUSTER         CLEAR     22   3  44 NW16G37   30.21S WCI   8
ELLSWORTH AFB  CLEAR     32   9  37 NW29G41   30.24R WCI  18
PHILIP         CLOUDY    34  19  54 NW22G29   30.22R WCI  22
PINE RIDGE     CLEAR     32   7  35 NW17      30.26R WCI  21
SPEARFISH      FAIR      28   9  43 NW22G30   30.30R WCI  15
WINNER         MOCLDY    32  18  56 NW23G29   30.14R WCI  19
$$

SDZ004>011-016>023-039-040-080300-
NORTHEAST SOUTH DAKOTA

CITY           SKY/WX    TMP DP  RH WIND       PRES   REMARKS
ABERDEEN       CLOUDY    29  18  63 N28G39    30.02R WCI  14
WATERTOWN      LGT SNOW  21  15  78 NW25G36   29.92R WCI   4
BROOKINGS      LGT SNOW  22  18  85 N22G33    29.92R FOG     WCI   6
SISSETON         N/A     20  17  88 N20       29.95R WCI   4
$$

SDZ017-020-022-023-036>040-048>070-080300-
SOUTHEAST SOUTH DAKOTA

CITY           SKY/WX    TMP DP  RH WIND       PRES   REMARKS
SIOUX FALLS    LGT SNOW  25  20  81 NW18      29.95F WCI  11
HURON          CLOUDY    29  20  69 N26G32    30.01R WCI  14
CHAMBERLAIN    PTCLDY    33  17  51 NW35G47   30.10R WCI  18
MITCHELL       MOCLDY    31  22  69 N23G36    30.04S WCI  18
YANKTON          N/A     30  28  93 NW33      30.02R VSB 3/4 WCI  14
$$

ABBREVIATIONS USED IN REMARKS
   TC - TEMPERATURE IN CELSIUS
  WCI - WIND CHILL INDEX
   HX - HEAT INDEX
  VSB - VISIBILITY




USA.gov is the U.S. government's official web portal to all federal, state and local government web resources and services.